Location: Althorst
(53.6379°N, 10.7715°E)
Time: 23:17:08
(UTC+00:00)

Sich 1 Rocket - Pass Details

Date: 10 December 2019
Orbit: 616 x 653 km, 82.5° (Epoch: 22 January)

Event Time Altitude Azimuth Distance (km) Brightness Sun altitude
Rises 16:37:47 0° 354° (N) 2,921 6.9 -13.8°
Reaches altitude 10° 16:40:14 10° 4° (N) 2,005 5.9 -14.1°
Maximum altitude 16:44:14 32° 69° (ENE) 1,068 4.2 -14.7°
Drops below altitude 10° 16:48:11 10° 133° (SE) 1,981 5.9 -15.2°
Sets 16:50:35 0° 143° (SE) 2,881 6.8 -15.6°
